Cloud_Cover
96 100 100 100 100 100 98 31 17 33 32 22 25 30 1 0 0 0 0 0 0 0 0 0 0 0 1 89 100 100 82 100 100 100 100 100 100 100 99 100 87 20 4 0 92
100 100 100 100 97 13 16 17 41 78 25 48 8 24 1 0 0 0 0 0 0 0 0 0 0 0 0 13 99 100 71 100 100 98 100 98 100 100 100 100 56 19 2 0 23
100 100 100 100 35 26 43 34 24 1 25 41 27 16 0 0 0 0 0 0 0 0 0 0 0 0 5 87 89 49 79 96 98 100 88 100 100 100 100 100 72 0 0 0 0
100 100 100 100 49 30 35 36 32 27 25 31 24 0 0 0 0 0 0 0 0 0 0 0 0 0 5 100 60 92 96 63 85 100 94 77 99 100 100 96 100 3 0 0 56
100 100 100 100 85 58 32 7 15 35 31 27 2 3 0 0 0 0 0 0 0 0 0 0 0 3 14 97 97 62 100 28 2 80 69 35 88 100 100 93 100 28 0 0 11
100 100 100 97 40 19 0 0 19 28 26 28 0 0 0 0 0 0 0 0 0 0 0 0 0 10 5 99 18 90 68 62 3 4 39 23 96 88 90 100 100 65 2 6 100
99 76 17 0 11 9 0 0 12 18 17 7 0 2 0 0 0 0 0 0 0 0 0 0 0 0 4 5 20 59 2 17 71 94 40 7 99 100 78 100 58 95 5 1 0
0 17 31 24 1 0 0 0 0 0 2 0 1 0 0 0 0 0 0 0 0 0 0 0 0 0 0 1 4 100 3 3 63 100 4 4 100 100 77 100 100 100 100 98 91
91 100 100 50 9 0 0 0 0 0 0 0 0 0 0 0 0 0 0 0 0 0 0 0 0 0 4 15 100 50 85 43 54 100 52 16 75 100 93 100 100 94 89 100 93
100 100 94 16 1 0 0 0 0 26 0 0 0 0 0 0 0 0 0 0 0 0 0 0 0 0 0 0 2 95 81 95 77 100 100 95 40 98 82 100 100 100 100 23 35
100 99 6 0 0 0 2 0 0 0 0 0 0 0 0 0 0 0 0 0 0 0 0 0 0 0 0 5 5 80 71 82 77 100 100 100 100 100 100 100 100 100 98 87 60
99 5 0 0 0 1 42 0 0 0 0 0 0 0 0 0 0 0 0 0 0 0 0 0 0 0 0 7 10 10 96 100 100 100 100 100 100 100 100 100 100 100 100 86 8
0 0 0 0 0 7 0 0 0 0 0 1 0 0 0 0 0 0 0 0 0 0 0 0 0 0 1 24 56 0 100 100 100 100 100 100 100 99 100 100 100 100 100 99 23
0 0 0 35 5 2 0 0 0 1 5 5 2 1 0 0 0 0 0 0 0 0 0 0 0 0 0 1 4 0 86 100 100 100 100 100 100 100 100 100 100 99 100 64 99
0 0 0 55 4 5 5 5 5 0 5 63 2 4 0 5 0 0 0 0 0 0 0 0 0 0 0 0 0 0 79 100 100 100 100 100 100 100 100 100 100 100 100 99 100
4 3 18 5 5 5 5 2 0 1 11 100 69 5 26 7 5 0 3 2 0 0 0 0 0 0 0 0 0 0 0 4 93 47 96 100 100 100 100 100 100 100 100 100 100
5 5 58 6 11 8 7 5 5 4 2 50 100 83 99 100 100 27 4 5 4 0 1 0 0 0 0 0 0 0 0 0 0 20 81 78 54 100 54 100 100 100 100 100 100
5 5 5 5 6 24 7 6 5 5 5 6 55 100 98 100 90 44 66 4 3 5 7 4 0 0 0 0 0 0 0 0 2 99 94 100 100 86 82 99 100 100 100 100 100
5 5 6 8 5 5 5 5 2 5 5 75 36 100 100 100 68 100 7 4 0 0 0 0 0 38 5 0 0 0 0 1 100 7 97 94 78 81 75 38 100 100 100 100 100
70 13 14 46 5 4 5 5 5 5 5 100 100 100 99 100 97 40 5 3 4 1 0 4 1 1 0 0 0 0 0 0 85 5 97 49 100 95 11 89 34 100 100 100 100
69 85 47 63 4 0 0 1 4 5 5 100 100 100 100 100 83 100 97 22 74 44 21 3 3 4 95 100 51 0 0 5 11 100 88 58 100 95 29 100 50 100 100 100 100
5 82 6 57 5 0 0 0 0 4 5 44 100 100 100 100 100 100 95 100 95 100 88 6 5 5 11 100 100 92 0 5 3 30 99 100 28 7 78 100 100 60 100 100 100
5 41 39 5 5 0 0 0 0 0 0 7 100 100 100 100 98 100 100 100 62 71 86 68 0 1 2 48 100 100 2 1 53 92 100 91 100 97 100 99 47 5 53 96 42
5 5 5 5 4 1 0 0 0 0 4 5 5 100 100 100 100 100 100 100 88 99 86 98 43 3 100 12 40 97 99 5 14 40 100 36 99 100 50 76 83 85 100 42 2
5 0 4 5 5 0 0 0 0 4 5 5 5 5 81 100 100 100 100 100 99 26 90 39 42 10 100 96 83 89 93 52 58 4 93 100 42 35 88 79 8 49 31 0 0
5 0 4 5 0 0 0 0 0 0 5 19 9 11 67 6 5 5 5 79 100 100 100 90 100 38 4 100 39 31 100 100 100 66 36 12 9 5 14 5 66 5 0 0 0
3 4 5 74 34 14 5 1 0 5 5 5 5 5 68 40 5 27 5 30 65 86 88 99 61 11 5 1 23 100 100 100 100 100 28 43 62 5 4 0 24 0 0 0 0